Weather History for Lancaster, PA

Change the Weather History Date:

Thursday, August 29, 2013

  Actual Average Record
Temperature  
Mean Temperature 74 °F -  
Max Temperature 82 °F 83 °F 95 °F (1993)
Min Temperature 66 °F 61 °F 39 °F (1986)
Cooling Degree Days 9    
Growing Degree Days 24 (Base 50)    
Moisture  
Dew Point 68 °F    
Average Humidity 86    
Maximum Humidity 100    
Minimum Humidity 58    
Precipitation  
Precipitation 0.00 in - - ()
Sea Level Pressure  
Sea Level Pressure 29.97 in    
Wind  
Wind Speed 3 mph (NE)    
Max Wind Speed 8 mph    
Max Gust Speed -    
Visibility 4 miles    
Events      
Averages and records for this station are not official NWS values.
T = Trace of Precipitation, MM = Missing Value Source: NWS Daily Summary

Daily Weather History Graph

Daily Weather History Graph

Search for Another Location

Airport:

Trip Planner

Search our weather history database for the weather conditions in past years. The results will help you decide how hot, cold, wet, or windy it might be!

Date:

Astronomy

Aug. 29, 2013 Rise Set
Actual Time 6:30 AM EDT 7:41 PM EDT
Civil Twilight 6:02 AM EDT 8:09 PM EDT
Nautical Twilight 5:28 AM EDT 8:42 PM EDT
Astronomical Twilight 4:53 AM EDT 9:17 PM EDT
Moon 12:19 AM EDT (8/29) 3:08 PM EDT (8/29)
Length of Visible Light 14h 06m
Length of Day
13h 10m
Last Quarter, 38% of the Moon is Illuminated
Aug 29
Last Quarter
Sep 5
New
Sep 12
First Quarter
Sep 19
Full
Sep 26
Last Quarter

Hourly Weather History & Observations

Time (EDT) Temp. Heat Index Dew Point Humidity Pressure Visibility Wind Dir Wind Speed Gust Speed Precip Events Conditions
12:53 AM 70.0 °F - 68.0 °F 93% 29.88 in 4.0 mi Calm Calm - N/A   Mostly Cloudy
1:53 AM 68.0 °F - 66.9 °F 96% 29.89 in 3.0 mi ENE 3.5 mph - N/A   Clear
2:15 AM 69.8 °F - 68.0 °F 94% 29.90 in 4.0 mi NE 6.9 mph - N/A   Mostly Cloudy
2:34 AM 69.8 °F - 68.0 °F 94% 29.90 in 4.0 mi NE 3.5 mph - N/A   Overcast
2:53 AM 69.1 °F - 66.9 °F 93% 29.90 in 3.0 mi NE 3.5 mph - N/A   Mostly Cloudy
3:12 AM 68.0 °F - 66.2 °F 94% 29.90 in 3.0 mi Calm Calm - N/A   Scattered Clouds
3:53 AM 66.9 °F - 66.0 °F 97% 29.90 in 2.5 mi ENE 3.5 mph - N/A   Scattered Clouds
4:16 AM 66.2 °F - 66.2 °F 100% 29.91 in 2.5 mi East 3.5 mph - N/A   Mostly Cloudy
4:53 AM 69.1 °F - 68.0 °F 96% 29.92 in 2.5 mi NE 4.6 mph - N/A   Overcast
5:04 AM 69.8 °F - 68.0 °F 94% 29.93 in 3.0 mi NNE 5.8 mph - N/A   Overcast
5:37 AM 69.8 °F - 68.0 °F 94% 29.94 in 2.5 mi NNE 4.6 mph - N/A   Overcast
5:45 AM 69.8 °F - 68.0 °F 94% 29.94 in 2.5 mi NNE 3.5 mph - N/A   Overcast
5:53 AM 69.1 °F - 68.0 °F 96% 29.94 in 2.5 mi NNE 5.8 mph - N/A   Overcast
6:48 AM 69.8 °F - 68.0 °F 94% 29.96 in 1.5 mi NNE 3.5 mph - N/A   Overcast
6:53 AM 70.0 °F - 68.0 °F 93% 29.96 in 1.2 mi Calm Calm - N/A   Overcast
7:16 AM 69.8 °F - 68.0 °F 94% 29.96 in 1.2 mi Calm Calm - N/A   Overcast
7:53 AM 71.1 °F - 69.1 °F 93% 29.97 in 1.2 mi North 4.6 mph - N/A   Overcast
8:35 AM 71.6 °F - 68.0 °F 88% 29.99 in 2.0 mi NNE 5.8 mph - N/A   Overcast
8:53 AM 72.0 °F - 68.0 °F 87% 29.99 in 2.0 mi NNE 5.8 mph - N/A   Overcast
9:53 AM 73.0 °F - 69.1 °F 87% 30.00 in 2.0 mi NNE 6.9 mph - N/A   Overcast
10:49 AM 73.4 °F - 68.0 °F 83% 30.02 in 3.0 mi ENE 4.6 mph - N/A   Haze
10:53 AM 73.0 °F - 68.0 °F 84% 30.01 in 3.0 mi ENE 4.6 mph - N/A   Haze
11:53 AM 73.9 °F - 69.1 °F 85% 30.02 in 3.0 mi North 5.8 mph - N/A   Haze
12:37 PM 75.2 °F - 68.0 °F 78% 30.03 in 4.0 mi North 8.1 mph - N/A   Haze
12:53 PM 75.0 °F - 69.1 °F 82% 30.03 in 4.0 mi NNE 5.8 mph - N/A   Haze
1:53 PM 77.0 °F - 69.1 °F 76% 30.01 in 6.0 mi NNW 4.6 mph - N/A   Haze
2:53 PM 79.0 °F - 69.1 °F 72% 30.00 in 7.0 mi NNE 5.8 mph - N/A   Overcast
3:53 PM 79.0 °F - 68.0 °F 69% 30.00 in 7.0 mi Calm Calm - N/A   Overcast
4:05 PM 80.6 °F 83.2 °F 68.0 °F 65% 30.01 in 7.0 mi North 3.5 mph - N/A   Mostly Cloudy
4:53 PM 81.0 °F 83.0 °F 66.0 °F 60% 29.99 in 10.0 mi Calm Calm - N/A   Clear
5:53 PM 82.0 °F 84.1 °F 66.0 °F 58% 29.99 in 10.0 mi Calm Calm - N/A   Clear
6:53 PM 80.1 °F 82.3 °F 66.9 °F 64% 29.99 in 10.0 mi Calm Calm - N/A   Clear
7:53 PM 75.9 °F - 66.9 °F 74% 30.00 in 8.0 mi Calm Calm - N/A   Clear
8:53 PM 72.0 °F - 66.9 °F 84% 30.02 in 8.0 mi Calm Calm - N/A   Clear
9:53 PM 69.1 °F - 66.9 °F 93% 30.01 in 6.0 mi East 3.5 mph - N/A   Clear
10:53 PM 69.1 °F - 66.9 °F 93% 30.01 in 4.0 mi Calm Calm - N/A   Clear
11:53 PM 69.1 °F - 66.9 °F 93% 30.01 in 4.0 mi East 4.6 mph - N/A   Partly Cloudy